N6NFA-1 Weather Reports


Display with metric or nautical units.
time (UTC)temp
F
wind
direction
speed
MPH
gust
MPH
rain 1hr
in
rain 24hr
in
rain mn
in
humidity
%
barometer
mb
20210116091522 53 356 0.0 0.0 0.00 0.00 0.00 29 1016.6
20210116090031 52 356 0.0 0.0 0.00 0.00 0.00 32 1016.7
20210116084535 52 356 0.0 0.0 0.00 0.00 0.00 34 1016.9
20210116083010 54 356 0.0 0.0 0.00 0.00 0.00 32 1016.8
20210116081522 55 356 0.0 0.0 0.00 0.00 0.00 28 1016.9
20210116080020 55 356 0.0 0.0 0.00 0.00 0.00 28 1016.6
20210116074509 55 356 0.0 0.0 0.00 0.00 0.00 30 1016.5
20210116073225 55 356 0.0 0.0 0.00 0.00 0.00 30 1016.7
20210116071729 55 356 0.0 0.0 0.00 0.00 0.00 30 1016.9
20210116070120 55 356 0.0 0.0 0.00 0.00 0.00 30 1017.0
20210116064653 58 356 0.0 0.0 0.00 0.00 0.00 27 1017.5
20210116063108 58 356 0.0 0.0 0.00 0.00 0.00 25 1017.5
20210116061647 58 356 0.0 0.0 0.00 0.00 0.00 26 1017.5
20210116060133 59 356 0.0 0.0 0.00 0.00 0.00 26 1017.6
20210116054558 61 356 0.0 0.0 0.00 0.00 0.00 23 1017.6
20210116053118 62 356 0.0 0.0 0.00 0.00 0.00 23 1017.6
20210116051631 61 6 0.0 0.0 0.00 0.00 0.00 24 1017.8
20210116050104 60 6 0.0 0.0 0.00 0.00 0.00 26 1017.6
20210116044728 60 6 0.0 0.0 0.00 0.00 0.00 26 1017.9
20210116043050 60 6 0.0 0.0 0.00 0.00 0.00 27 1018.0
20210116041601 59 24 0.0 2.0 0.00 0.00 0.00 29 1018.0
20210116040059 60 46 0.0 0.0 0.00 0.00 0.00 29 1018.0
20210116034631 61 46 0.0 0.0 0.00 0.00 0.00 28 1018.0
20210116033036 63 46 0.0 0.0 0.00 0.00 0.00 27 1017.9
20210116031616 64 46 0.0 0.0 0.00 0.00 0.00 24 1017.9
20210116030030 64 46 0.0 0.0 0.00 0.00 0.00 26 1017.8
20210116024526 64 46 0.0 0.0 0.00 0.00 0.00 25 1017.7
20210116023019 64 46 0.0 0.0 0.00 0.00 0.00 27 1017.8
20210116021540 65 46 0.0 0.0 0.00 0.00 0.00 28 1017.8
20210116020025 67 46 0.0 0.0 0.00 0.00 0.00 27 1017.9
20210116014531 69 46 0.0 1.0 0.00 0.00 0.00 25 1017.9
20210116013019 72 46 0.0 1.0 0.00 0.00 0.00 23 1017.9
20210116011514 75 46 0.0 0.0 0.00 0.00 0.00 18 1017.8
20210116010032 79 46 0.0 0.0 0.00 0.00 0.00 17 1017.8
20210116004509 81 46 0.0 0.0 0.00 0.00 0.00 13 1017.8
20210116003009 83 46 0.0 2.0 0.00 0.00 0.00 11 1017.7
20210116001510 83 46 0.0 3.0 0.00 0.00 0.00 11 1017.6
20210116000008 84 41 0.0 4.0 0.00 0.00 0.00 10 1017.8
20210115234703 83 15 0.0 4.0 0.00 0.00 0.00 10 1017.8
20210115233117 84 354 0.0 3.0 0.00 0.00 0.00 9 1017.8
20210115231615 85 53 0.0 3.0 0.00 0.00 0.00 9 1017.9
20210115230217 85 81 0.0 3.0 0.00 0.00 0.00 9 1018.1
20210115224627 85 101 1.0 4.0 0.00 0.00 0.00 9 1018.2
20210115223113 85 82 2.0 7.0 0.00 0.00 0.00 9 1018.2
20210115221736 85 108 1.0 7.0 0.00 0.00 0.00 10 1018.1
20210115220114 85 179 1.0 3.0 0.00 0.00 0.00 9 1018.4
20210115214710 85 224 0.0 5.0 0.00 0.00 0.00 9 1018.5
20210115213141 83 285 1.0 10.0 0.00 0.00 0.00 10 1018.5
20210115211617 83 252 0.0 5.0 0.00 0.00 0.00 10 1018.8
20210115210146 82 21 0.0 3.0 0.00 0.00 0.00 11 1019.1
20210115204656 81 31 0.0 4.0 0.00 0.00 0.00 11 1019.5
20210115203116 81 57 1.0 3.0 0.00 0.00 0.00 11 1019.7
20210115201612 80 24 0.0 3.0 0.00 0.00 0.00 11 1020.1
20210115200121 80 60 0.0 2.0 0.00 0.00 0.00 12 1020.5
20210115194612 78 42 0.0 1.0 0.00 0.00 0.00 13 1020.7
20210115193104 77 224 0.0 1.0 0.00 0.00 0.00 16 1021.2
20210115191707 76 229 0.0 3.0 0.00 0.00 0.00 17 1021.7
20210115190037 76 110 0.0 3.0 0.00 0.00 0.00 17 1021.8
20210115184529 75 24 0.0 1.0 0.00 0.00 0.00 18 1022.1
20210115183023 74 9 0.0 1.0 0.00 0.00 0.00 19 1022.3
20210115181517 72 269 0.0 1.0 0.00 0.00 0.00 22 1022.7
20210115180030 71 268 0.0 1.0 0.00 0.00 0.00 23 1022.8
20210115174517 69 358 0.0 1.0 0.00 0.00 0.00 23 1022.8
20210115173242 69 32 0.0 0.0 0.00 0.00 0.00 24 1022.7
20210115171644 65 28 0.0 2.0 0.00 0.00 0.00 27 1022.8
20210115170135 65 59 0.0 1.0 0.00 0.00 0.00 29 1022.8
20210115164634 64 338 0.0 0.0 0.00 0.00 0.00 28 1022.5
20210115163138 62 338 0.0 0.0 0.00 0.00 0.00 28 1022.4
20210115161612 61 37 0.0 0.0 0.00 0.00 0.00 27 1022.4
20210115160204 57 8 0.0 3.0 0.00 0.00 0.00 30 1022.0
20210115154626 54 352 0.0 4.0 0.00 0.00 0.00 34 1021.9
20210115153104 49 263 0.0 0.0 0.00 0.00 0.00 42 1021.9
20210115151556 48 253 2.0 4.0 0.00 0.00 0.00 42 1021.8
20210115150051 49 3 0.0 0.0 0.00 0.00 0.00 42 1021.8
20210115144547 49 300 0.0 0.0 0.00 0.00 0.00 41 1021.4
20210115143051 49 297 0.0 3.0 0.00 0.00 0.00 41 1021.6
20210115141547 51 328 1.0 5.0 0.00 0.00 0.00 37 1021.4
20210115140023 50 259 0.0 3.0 0.00 0.00 0.00 39 1021.4
20210115134542 51 341 1.0 4.0 0.00 0.00 0.00 38 1021.2
20210115133028 52 8 0.0 4.0 0.00 0.00 0.00 35 1020.9
20210115131520 53 268 0.0 4.0 0.00 0.00 0.00 33 1020.8
20210115130028 54 4 0.0 0.0 0.00 0.00 0.00 31 1020.8
20210115124525 56 42 0.0 0.0 0.00 0.00 0.00 28 1020.7
20210115123016 56 252 0.0 5.0 0.00 0.00 0.00 29 1020.9
20210115121524 58 240 0.0 11.0 0.00 0.00 0.00 29 1020.8
20210115120030 59 29 1.0 6.0 0.00 0.00 0.00 27 1020.4
20210115113007 54 70 1.0 6.0 0.00 0.00 0.00 33 1020.8
20210115111717 55 239 0.0 3.0 0.00 0.00 0.00 33 1020.9
20210115110204 55 349 0.0 4.0 0.00 0.00 0.00 32 1020.5
20210115104642 52 323 0.0 1.0 0.00 0.00 0.00 35 1020.8
20210115103220 53 255 2.0 8.0 0.00 0.00 0.00 35 1021.0
20210115101640 54 360 0.0 4.0 0.00 0.00 0.00 34 1021.4
20210115100139 54 313 0.0 2.0 0.00 0.00 0.00 34 1021.4
20210115094611 54 247 0.0 6.0 0.00 0.00 0.00 34 1021.5
20210115093128 54 314 0.0 1.0 0.00 0.00 0.00 33 1021.5